| time (UTC) | temp C | wind direction | speed KPH | gust KPH | rain 1hr cm | rain 24hr cm | rain mn cm | humidity % | barometer mb |
| 20260504081548 | 7 | 180 | 6.4 | 11.3 | 0.00 | 0.00 | 0.00 | 66 | 1009.9 |
| 20260504044535 | 7 | 191 | 1.6 | 8.0 | 0.00 | 0.00 | 0.00 | 62 | 1010.9 |
| 20260504043041 | 7 | 191 | 4.8 | 8.0 | 0.00 | 0.00 | 0.00 | 62 | 1011.3 |
| 20260504041535 | 6 | 202 | 3.2 | 8.0 | 0.00 | 0.00 | 0.00 | 63 | 1011.3 |
| 20260504040040 | 6 | 227 | 4.8 | 11.3 | 0.00 | 0.00 | 0.00 | 63 | 1011.3 |
| 20260504034537 | 6 | 0 | 1.6 | 4.8 | 0.00 | 0.00 | 0.00 | 61 | 1011.1 |
| 20260504033039 | 6 | 279 | 1.6 | 4.8 | 0.00 | 0.00 | 0.00 | 60 | 1010.9 |
| 20260504031535 | 6 | 0 | 0.0 | 0.0 | 0.00 | 0.00 | 0.00 | 56 | 1010.8 |
| 20260504030036 | 6 | 0 | 0.0 | 0.0 | 0.00 | 0.00 | 0.00 | 55 | 1010.8 |
| 20260504024535 | 7 | 0 | 0.0 | 3.2 | 0.00 | 0.00 | 0.00 | 53 | 1010.7 |
| 20260504023038 | 7 | 279 | 0.0 | 3.2 | 0.00 | 0.00 | 0.00 | 51 | 1010.8 |
| 20260504021537 | 8 | 279 | 1.6 | 3.2 | 0.00 | 0.00 | 0.00 | 49 | 1010.8 |
| 20260504020057 | 8 | 278 | 0.0 | 4.8 | 0.00 | 0.00 | 0.00 | 48 | 1010.8 |
| 20260504014553 | 9 | 279 | 0.0 | 4.8 | 0.00 | 0.00 | 0.00 | 46 | 1010.9 |
| 20260504013044 | 9 | 0 | 1.6 | 6.4 | 0.00 | 0.00 | 0.00 | 45 | 1010.9 |
| 20260504011538 | 10 | 284 | 1.6 | 11.3 | 0.00 | 0.00 | 0.00 | 44 | 1010.7 |
| 20260504010043 | 10 | 263 | 3.2 | 16.1 | 0.00 | 0.00 | 0.00 | 42 | 1010.5 |
| 20260504004550 | 10 | 219 | 4.8 | 16.1 | 0.00 | 0.00 | 0.00 | 41 | 1010.4 |
| 20260504003037 | 11 | 234 | 4.8 | 16.1 | 0.00 | 0.00 | 0.00 | 40 | 1010.2 |
| 20260504001555 | 11 | 265 | 9.7 | 20.9 | 0.00 | 0.00 | 0.00 | 39 | 1009.9 |
| 20260504000037 | 11 | 247 | 6.4 | 22.5 | 0.00 | 0.00 | 0.00 | 38 | 1009.7 |
| 20260503234535 | 12 | 322 | 8.0 | 24.1 | 0.00 | 0.00 | 0.00 | 36 | 1009.6 |
| 20260503233041 | 12 | 275 | 8.0 | 27.4 | 0.00 | 0.00 | 0.00 | 35 | 1009.3 |
| 20260503231537 | 12 | 285 | 6.4 | 19.3 | 0.00 | 0.00 | 0.00 | 34 | 1009.1 |
| 20260503230045 | 12 | 297 | 8.0 | 20.9 | 0.00 | 0.00 | 0.00 | 33 | 1009.0 |
| 20260503224537 | 12 | 262 | 14.5 | 27.4 | 0.00 | 0.00 | 0.00 | 32 | 1008.8 |
| 20260503223036 | 12 | 322 | 11.3 | 32.2 | 0.00 | 0.00 | 0.00 | 32 | 1008.8 |
| 20260503221535 | 13 | 262 | 9.7 | 24.1 | 0.00 | 0.00 | 0.00 | 32 | 1008.6 |
| 20260503220046 | 13 | 285 | 11.3 | 32.2 | 0.00 | 0.00 | 0.00 | 32 | 1008.7 |
| 20260503214537 | 13 | 254 | 12.9 | 30.6 | 0.00 | 0.00 | 0.00 | 32 | 1008.7 |
| 20260503213037 | 13 | 246 | 17.7 | 35.4 | 0.00 | 0.00 | 0.00 | 30 | 1008.6 |
| 20260503211537 | 13 | 262 | 11.3 | 27.4 | 0.00 | 0.00 | 0.00 | 32 | 1008.6 |
| 20260503210033 | 13 | 293 | 8.0 | 22.5 | 0.00 | 0.00 | 0.00 | 34 | 1008.7 |
| 20260503204541 | 13 | 248 | 8.0 | 19.3 | 0.00 | 0.00 | 0.00 | 37 | 1008.7 |
| 20260503203054 | 12 | 342 | 6.4 | 27.4 | 0.00 | 0.00 | 0.00 | 36 | 1009.0 |
| 20260503201538 | 12 | 360 | 8.0 | 25.7 | 0.00 | 0.00 | 0.00 | 37 | 1008.9 |
| 20260503200037 | 12 | 241 | 6.4 | 22.5 | 0.00 | 0.00 | 0.00 | 36 | 1009.1 |
| 20260503194542 | 12 | 290 | 4.8 | 22.5 | 0.00 | 0.00 | 0.00 | 39 | 1009.3 |
| 20260503193038 | 12 | 292 | 9.7 | 25.7 | 0.00 | 0.00 | 0.00 | 37 | 1009.6 |
| 20260503191543 | 11 | 222 | 12.9 | 20.9 | 0.00 | 0.00 | 0.00 | 39 | 1009.8 |
| 20260503190043 | 11 | 258 | 8.0 | 27.4 | 0.00 | 0.00 | 0.00 | 39 | 1009.9 |
| 20260503184537 | 11 | 269 | 14.5 | 27.4 | 0.00 | 0.00 | 0.00 | 41 | 1010.1 |
| 20260503183037 | 11 | 262 | 11.3 | 30.6 | 0.00 | 0.00 | 0.00 | 40 | 1010.3 |
| 20260503181538 | 11 | 298 | 8.0 | 24.1 | 0.00 | 0.00 | 0.00 | 40 | 1010.3 |
| 20260503180037 | 11 | 277 | 12.9 | 32.2 | 0.00 | 0.00 | 0.00 | 40 | 1010.3 |
| 20260503174536 | 11 | 331 | 8.0 | 27.4 | 0.00 | 0.00 | 0.00 | 41 | 1010.5 |
| 20260503173038 | 10 | 0 | 9.7 | 33.8 | 0.00 | 0.00 | 0.00 | 41 | 1010.4 |
| 20260503171537 | 10 | 315 | 11.3 | 25.7 | 0.00 | 0.00 | 0.00 | 39 | 1010.4 |